Time,TemperatureF,DewpointF,PressureIn,WindDirection,WindDirectionDegrees,WindSpeedMPH,WindSpeedGustMPH,Humidity,HourlyPrecipIn,Conditions,Clouds,dailyrainin,SoftwareType,DateUTC
2013-04-21 00:21:00,37.0,32.0,-100.00,WNW,292,4.0,8.0,81,0.00,,,0.11,,2013-04-21 06:21:00,
2013-04-21 00:32:00,37.0,32.0,-100.00,WNW,292,4.0,8.0,81,0.00,,,0.11,,2013-04-21 06:32:00,
2013-04-21 00:42:00,37.0,32.0,-100.00,WNW,292,4.0,8.0,81,0.00,,,0.11,,2013-04-21 06:42:00,
2013-04-21 00:51:00,34.0,31.0,-100.00,SW,216,3.0,10.0,90,0.00,,,0.11,,2013-04-21 06:51:00,
2013-04-21 01:21:00,34.0,31.0,-100.00,SW,216,3.0,10.0,90,0.00,,,0.11,,2013-04-21 07:21:00,
2013-04-21 01:31:00,34.0,31.0,-100.00,SW,216,3.0,10.0,90,0.00,,,0.11,,2013-04-21 07:31:00,
2013-04-21 01:41:00,34.0,31.0,-100.00,SW,216,3.0,10.0,90,0.00,,,0.11,,2013-04-21 07:41:00,
2013-04-21 01:51:00,32.0,30.0,-100.00,SSW,206,2.0,6.0,93,0.00,,,0.11,,2013-04-21 07:51:00,
2013-04-21 02:21:00,32.0,30.0,-100.00,SSW,206,2.0,6.0,93,0.00,,,0.11,,2013-04-21 08:21:00,
2013-04-21 02:32:00,32.0,30.0,-100.00,SSW,206,2.0,6.0,93,0.00,,,0.11,,2013-04-21 08:32:00,
2013-04-21 02:41:00,32.0,30.0,-100.00,SSW,206,2.0,6.0,93,0.00,,,0.11,,2013-04-21 08:41:00,
2013-04-21 02:51:00,31.0,29.0,-100.00,SW,225,4.0,8.0,93,0.00,,,0.10,,2013-04-21 08:51:00,
2013-04-21 03:11:00,31.0,29.0,-100.00,SW,225,4.0,8.0,93,0.00,,,0.10,,2013-04-21 09:11:00,
2013-04-21 03:21:00,31.0,29.0,-100.00,SW,225,4.0,8.0,93,0.00,,,0.10,,2013-04-21 09:21:00,
2013-04-21 03:32:00,31.0,29.0,-100.00,SW,225,4.0,8.0,93,0.00,,,0.10,,2013-04-21 09:32:00,
2013-04-21 03:42:00,31.0,29.0,-100.00,SW,225,4.0,8.0,93,0.00,,,0.10,,2013-04-21 09:42:00,
2013-04-21 03:51:00,30.0,27.0,-100.00,WNW,284,2.0,5.0,90,0.00,,,0.10,,2013-04-21 09:51:00,
2013-04-21 04:12:00,30.0,27.0,-100.00,WNW,284,2.0,5.0,90,0.00,,,0.10,,2013-04-21 10:12:00,
2013-04-21 04:22:00,30.0,27.0,-100.00,WNW,284,2.0,5.0,90,0.00,,,0.10,,2013-04-21 10:22:00,
2013-04-21 04:32:00,30.0,27.0,-100.00,WNW,284,2.0,5.0,90,0.00,,,0.10,,2013-04-21 10:32:00,
2013-04-21 04:42:00,30.0,27.0,-100.00,WNW,284,2.0,5.0,90,0.00,,,0.10,,2013-04-21 10:42:00,
2013-04-21 04:51:00,30.0,27.0,-100.00,South,175,2.0,7.0,89,0.00,,,0.10,,2013-04-21 10:51:00,
2013-04-21 05:12:00,30.0,27.0,-100.00,South,175,2.0,7.0,89,0.00,,,0.10,,2013-04-21 11:12:00,
2013-04-21 05:22:00,30.0,27.0,-100.00,South,175,2.0,7.0,89,0.00,,,0.10,,2013-04-21 11:22:00,
2013-04-21 05:33:00,30.0,27.0,-100.00,South,175,2.0,7.0,89,0.00,,,0.10,,2013-04-21 11:33:00,
2013-04-21 05:42:00,30.0,27.0,-100.00,South,175,2.0,7.0,89,0.00,,,0.10,,2013-04-21 11:42:00,
2013-04-21 05:51:00,29.0,27.0,-100.00,NE,52,5.0,6.0,92,0.00,,,-99.99,,2013-04-21 11:51:00,
2013-04-21 06:12:00,29.0,27.0,-100.00,NE,52,5.0,6.0,92,0.00,,,-99.99,,2013-04-21 12:12:00,
2013-04-21 06:22:00,29.0,27.0,-100.00,NE,52,5.0,6.0,92,0.00,,,-99.99,,2013-04-21 12:22:00,
2013-04-21 06:31:00,29.0,27.0,-100.00,NE,52,5.0,6.0,92,0.00,,,-99.99,,2013-04-21 12:31:00,
2013-04-21 06:42:00,29.0,27.0,-100.00,NE,52,5.0,6.0,92,0.00,,,-99.99,,2013-04-21 12:42:00,
2013-04-21 06:51:00,29.0,27.0,-100.00,East,93,3.0,8.0,92,0.00,,,0.10,,2013-04-21 12:51:00,
2013-04-21 07:11:00,29.0,27.0,-100.00,East,93,3.0,8.0,92,0.00,,,0.10,,2013-04-21 13:11:00,
2013-04-21 07:21:00,29.0,27.0,-100.00,East,93,3.0,8.0,92,0.00,,,0.10,,2013-04-21 13:21:00,
2013-04-21 07:32:00,29.0,27.0,-100.00,East,93,3.0,8.0,92,0.00,,,0.10,,2013-04-21 13:32:00,
2013-04-21 07:42:00,29.0,27.0,-100.00,East,93,3.0,8.0,92,0.00,,,0.10,,2013-04-21 13:42:00,
2013-04-21 07:51:00,29.0,27.0,-100.00,WSW,242,2.0,6.0,91,0.00,,,0.09,,2013-04-21 13:51:00,
2013-04-21 08:11:00,29.0,27.0,-100.00,WSW,242,2.0,6.0,91,0.00,,,0.09,,2013-04-21 14:11:00,
2013-04-21 08:21:00,29.0,27.0,-100.00,WSW,242,2.0,6.0,91,0.00,,,0.09,,2013-04-21 14:21:00,
2013-04-21 08:32:00,29.0,27.0,-100.00,WSW,242,2.0,6.0,91,0.00,,,0.09,,2013-04-21 14:32:00,
2013-04-21 08:42:00,29.0,27.0,-100.00,WSW,242,2.0,6.0,91,0.00,,,0.09,,2013-04-21 14:42:00,
2013-04-21 08:51:00,34.0,29.0,-100.00,SW,225,3.0,7.0,83,0.01,,,0.10,,2013-04-21 14:51:00,
2013-04-21 09:11:00,34.0,29.0,-100.00,SW,225,3.0,7.0,83,0.01,,,0.10,,2013-04-21 15:11:00,
2013-04-21 09:22:00,34.0,29.0,-100.00,SW,225,3.0,7.0,83,0.01,,,0.10,,2013-04-21 15:22:00,
2013-04-21 09:33:00,34.0,29.0,-100.00,SW,225,3.0,7.0,83,0.01,,,0.10,,2013-04-21 15:33:00,
2013-04-21 09:42:00,34.0,29.0,-100.00,SW,225,3.0,7.0,83,0.01,,,0.10,,2013-04-21 15:42:00,
2013-04-21 09:51:00,42.0,28.0,-100.00,WSW,240,6.0,10.0,58,0.00,,,-99.99,,2013-04-21 15:51:00,
2013-04-21 10:12:00,42.0,28.0,-100.00,WSW,240,6.0,10.0,58,0.00,,,-99.99,,2013-04-21 16:12:00,
2013-04-21 10:22:00,42.0,28.0,-100.00,WSW,240,6.0,10.0,58,0.00,,,-99.99,,2013-04-21 16:22:00,
2013-04-21 10:32:00,42.0,28.0,-100.00,WSW,240,6.0,10.0,58,0.00,,,-99.99,,2013-04-21 16:32:00,
2013-04-21 10:42:00,42.0,28.0,-100.00,WSW,240,6.0,10.0,58,0.00,,,-99.99,,2013-04-21 16:42:00,
2013-04-21 10:51:00,43.0,25.0,-100.00,WSW,250,5.0,13.0,49,0.00,,,0.10,,2013-04-21 16:51:00,
2013-04-21 11:12:00,43.0,25.0,-100.00,WSW,250,5.0,13.0,49,0.00,,,0.10,,2013-04-21 17:12:00,
2013-04-21 11:22:00,43.0,25.0,-100.00,WSW,250,5.0,13.0,49,0.00,,,0.10,,2013-04-21 17:22:00,
2013-04-21 11:32:00,43.0,25.0,-100.00,WSW,250,5.0,13.0,49,0.00,,,0.10,,2013-04-21 17:32:00,
2013-04-21 11:42:00,43.0,25.0,-100.00,WSW,250,5.0,13.0,49,0.00,,,0.10,,2013-04-21 17:42:00,
2013-04-21 11:51:00,47.0,25.0,-100.00,SW,226,5.0,15.0,42,0.00,,,0.10,,2013-04-21 17:51:00,
2013-04-21 12:11:00,47.0,25.0,-100.00,SW,226,5.0,15.0,42,0.00,,,0.10,,2013-04-21 18:11:00,
2013-04-21 12:22:00,47.0,25.0,-100.00,SW,226,5.0,15.0,42,0.00,,,0.10,,2013-04-21 18:22:00,
2013-04-21 12:32:00,47.0,25.0,-100.00,SW,226,5.0,15.0,42,0.00,,,0.10,,2013-04-21 18:32:00,
2013-04-21 12:42:00,47.0,25.0,-100.00,SW,226,5.0,15.0,42,0.00,,,0.10,,2013-04-21 18:42:00,
2013-04-21 12:51:00,48.0,27.0,-100.00,SW,214,12.0,23.0,43,0.00,,,0.08,,2013-04-21 18:51:00,
2013-04-21 13:11:00,48.0,27.0,-100.00,SW,214,12.0,23.0,43,0.00,,,0.08,,2013-04-21 19:11:00,
2013-04-21 13:21:00,48.0,27.0,-100.00,SW,214,12.0,23.0,43,0.00,,,0.08,,2013-04-21 19:21:00,
2013-04-21 13:32:00,48.0,27.0,-100.00,SW,214,12.0,23.0,43,0.00,,,0.08,,2013-04-21 19:32:00,
2013-04-21 13:42:00,48.0,27.0,-100.00,SW,214,12.0,23.0,43,0.00,,,0.08,,2013-04-21 19:42:00,
2013-04-21 13:51:00,48.0,24.0,-100.00,West,274,6.0,20.0,39,0.00,,,0.08,,2013-04-21 19:51:00,
2013-04-21 14:11:00,48.0,24.0,-100.00,West,274,6.0,20.0,39,0.00,,,0.08,,2013-04-21 20:11:00,
2013-04-21 14:22:00,48.0,24.0,-100.00,West,274,6.0,20.0,39,0.00,,,0.08,,2013-04-21 20:22:00,
2013-04-21 14:31:00,48.0,24.0,-100.00,West,274,6.0,20.0,39,0.00,,,0.08,,2013-04-21 20:31:00,
2013-04-21 14:41:00,48.0,24.0,-100.00,West,274,6.0,20.0,39,0.00,,,0.08,,2013-04-21 20:41:00,
2013-04-21 14:51:00,48.0,25.0,-100.00,West,272,9.0,24.0,40,0.00,,,0.07,,2013-04-21 20:51:00,
2013-04-21 15:12:00,48.0,25.0,-100.00,West,272,9.0,24.0,40,0.00,,,0.07,,2013-04-21 21:12:00,
2013-04-21 15:21:00,48.0,25.0,-100.00,West,272,9.0,24.0,40,0.00,,,0.07,,2013-04-21 21:21:00,
2013-04-21 15:33:00,48.0,25.0,-100.00,West,272,9.0,24.0,40,0.00,,,0.07,,2013-04-21 21:33:00,
2013-04-21 15:43:00,48.0,25.0,-100.00,West,272,9.0,24.0,40,0.00,,,0.07,,2013-04-21 21:43:00,
2013-04-21 15:51:00,49.0,28.0,-100.00,WSW,244,10.0,22.0,44,0.00,,,0.06,,2013-04-21 21:51:00,
2013-04-21 16:22:00,49.0,28.0,-100.00,WSW,244,10.0,22.0,44,0.00,,,0.06,,2013-04-21 22:22:00,
2013-04-21 16:33:00,49.0,28.0,-100.00,WSW,244,10.0,22.0,44,0.00,,,0.06,,2013-04-21 22:33:00,
2013-04-21 16:43:00,49.0,28.0,-100.00,WSW,244,10.0,22.0,44,0.00,,,0.06,,2013-04-21 22:43:00,
2013-04-21 16:51:00,45.0,28.0,-100.00,SSW,203,8.0,17.0,51,0.00,,,0.05,,2013-04-21 22:51:00,
2013-04-21 17:12:00,45.0,28.0,-100.00,SSW,203,8.0,17.0,51,0.00,,,0.05,,2013-04-21 23:12:00,
2013-04-21 17:22:00,45.0,28.0,-100.00,SSW,203,8.0,17.0,51,0.00,,,0.05,,2013-04-21 23:22:00,
2013-04-21 17:32:00,45.0,28.0,-100.00,SSW,203,8.0,17.0,51,0.00,,,0.05,,2013-04-21 23:32:00,
2013-04-21 17:42:00,45.0,28.0,-100.00,SSW,203,8.0,17.0,51,0.00,,,0.05,,2013-04-21 23:42:00,
2013-04-21 17:51:00,44.0,28.0,-100.00,WNW,290,7.0,15.0,53,0.00,,,0.05,,2013-04-21 23:51:00,
2013-04-21 18:11:00,44.0,28.0,-100.00,WNW,290,7.0,15.0,53,0.00,,,0.05,,2013-04-22 00:11:00,
2013-04-21 18:21:00,44.0,28.0,-100.00,WNW,290,7.0,15.0,53,0.00,,,0.05,,2013-04-22 00:21:00,
2013-04-21 18:32:00,44.0,28.0,-100.00,WNW,290,7.0,15.0,53,0.00,,,0.05,,2013-04-22 00:32:00,
2013-04-21 18:42:00,44.0,28.0,-100.00,WNW,290,7.0,15.0,53,0.00,,,0.05,,2013-04-22 00:42:00,
2013-04-21 18:51:00,42.0,30.0,-100.00,ENE,67,6.0,15.0,61,0.00,,,0.05,,2013-04-22 00:51:00,
2013-04-21 19:21:00,42.0,30.0,-100.00,ENE,67,6.0,15.0,61,0.00,,,0.05,,2013-04-22 01:21:00,
2013-04-21 19:32:00,42.0,30.0,-100.00,ENE,67,6.0,15.0,61,0.00,,,0.05,,2013-04-22 01:32:00,
2013-04-21 19:41:00,42.0,30.0,-100.00,ENE,67,6.0,15.0,61,0.00,,,0.05,,2013-04-22 01:41:00,
2013-04-21 19:51:00,44.0,25.0,-100.00,West,271,6.0,14.0,47,0.00,,,0.05,,2013-04-22 01:51:00,
2013-04-21 20:11:00,44.0,25.0,-100.00,West,271,6.0,14.0,47,0.00,,,0.05,,2013-04-22 02:11:00,
2013-04-21 20:21:00,44.0,25.0,-100.00,West,271,6.0,14.0,47,0.00,,,0.05,,2013-04-22 02:21:00,
2013-04-21 20:32:00,44.0,25.0,-100.00,West,271,6.0,14.0,47,0.00,,,0.05,,2013-04-22 02:32:00,
2013-04-21 20:41:00,44.0,25.0,-100.00,West,271,6.0,14.0,47,0.00,,,0.05,,2013-04-22 02:41:00,
2013-04-21 20:51:00,45.0,20.0,-100.00,West,268,9.0,20.0,37,0.00,,,0.05,,2013-04-22 02:51:00,
2013-04-21 21:11:00,45.0,20.0,-100.00,West,268,9.0,20.0,37,0.00,,,0.05,,2013-04-22 03:11:00,
2013-04-21 21:22:00,45.0,20.0,-100.00,West,268,9.0,20.0,37,0.00,,,0.05,,2013-04-22 03:22:00,
2013-04-21 21:33:00,45.0,20.0,-100.00,West,268,9.0,20.0,37,0.00,,,0.05,,2013-04-22 03:33:00,
2013-04-21 21:42:00,45.0,20.0,-100.00,West,268,9.0,20.0,37,0.00,,,0.05,,2013-04-22 03:42:00,
2013-04-21 21:51:00,44.0,25.0,-100.00,WSW,251,8.0,20.0,46,0.00,,,0.01,,2013-04-22 03:51:00,
2013-04-21 22:12:00,44.0,25.0,-100.00,WSW,251,8.0,20.0,46,0.00,,,0.01,,2013-04-22 04:12:00,
2013-04-21 22:23:00,44.0,25.0,-100.00,WSW,251,8.0,20.0,46,0.00,,,0.01,,2013-04-22 04:23:00,
2013-04-21 22:32:00,44.0,25.0,-100.00,WSW,251,8.0,20.0,46,0.00,,,0.01,,2013-04-22 04:32:00,
2013-04-21 22:43:00,44.0,25.0,-100.00,WSW,251,8.0,20.0,46,0.00,,,0.01,,2013-04-22 04:43:00,
2013-04-21 22:51:00,44.0,25.0,-100.00,WSW,247,12.0,22.0,46,0.00,,,0.01,,2013-04-22 04:51:00,
2013-04-21 23:12:00,44.0,25.0,-100.00,WSW,247,12.0,22.0,46,0.00,,,0.01,,2013-04-22 05:12:00,
2013-04-21 23:22:00,44.0,25.0,-100.00,WSW,247,12.0,22.0,46,0.00,,,0.01,,2013-04-22 05:22:00,
2013-04-21 23:32:00,44.0,25.0,-100.00,WSW,247,12.0,22.0,46,0.00,,,0.01,,2013-04-22 05:32:00,
2013-04-21 23:42:00,44.0,25.0,-100.00,WSW,247,12.0,22.0,46,0.00,,,0.01,,2013-04-22 05:42:00,
2013-04-21 23:51:00,42.0,23.0,-100.00,WSW,241,10.0,21.0,46,0.00,,,0.01,,2013-04-22 05:51:00,